This demonstration page uses our WeatherBlox Daily Observations layout. Learn more.

Left ArrowRight Arrow

Hourly Observations for September 23, 2021

Temp ( °F °C ) Dew Point ( °F °C ) Humidity (%) Winds ( mph kmh ) Pressure ( in mb ) Visibility ( mi km ) Precip ( " mm )
12:51 am 00:51 Clear 71 21.7 43 6.1 36 36 ESE 5 7 29.91 1013 10 16 N/A
1:51 am 01:51 Clear 67 19.4 44 6.7 44 44 N N/A 29.91 1013 10 16 N/A
2:51 am 02:51 Clear 67 19.4 44 6.7 44 44 NNE 6 9 29.90 1012 10 16 N/A
3:51 am 03:51 Clear 68 20 42 5.6 39 39 E 9 15 29.88 1012 10 16 N/A
4:51 am 04:51 Clear 68 20 43 6.1 40 40 SE 6 9 29.88 1012 10 16 N/A
5:51 am 05:51 Clear 68 20 42 5.6 39 39 SE 9 15 29.90 1012 10 16 N/A
6:51 am 06:51 Sunny 69 20.6 42 5.6 38 38 SSE 9 15 29.91 1013 10 16 N/A
7:51 am 07:51 Sunny 73 22.8 43 6.1 34 34 SE 9 15 29.92 1013 10 16 N/A
8:51 am 08:51 Sunny 75 23.9 44 6.7 33 33 SE 10 17 29.93 1014 10 16 N/A
9:51 am 09:51 Sunny 80 26.7 44 6.7 28 28 SSE 9 15 29.92 1013 10 16 N/A
10:51 am 10:51 Sunny 79 26.1 45 7.2 30 30 S 5 7 29.92 1013 10 16 N/A
11:51 am 11:51 Sunny 79 26.1 44 6.7 29 29 SW 3 6 29.91 1013 10 16 N/A
12:51 pm 12:51 Sunny 81 27.2 45 7.2 28 28 WNW 7 11 29.89 1012 10 16 N/A
1:51 pm 13:51 Partly Cloudy 80 26.7 45 7.2 29 29 NW 21 33 29.85 1011 10 16 N/A
2:51 pm 14:51 Mostly Sunny 80 26.7 47 8.3 31 31 WNW 10 17 29.86 1011 10 16 N/A
3:51 pm 15:51 Mostly Sunny 81 27.2 48 8.9 32 32 WNW 8 13 29.85 1011 10 16 N/A
4:51 pm 16:51 Sunny 79 26.1 46 7.8 31 31 SSE 9 15 29.85 1011 10 16 N/A
5:51 pm 17:51 Sunny 79 26.1 49 9.4 35 35 ESE 7 11 29.85 1011 10 16 N/A
6:51 pm 18:51 Mostly Cloudy 76 24.4 48 8.9 37 37 SE 6 9 29.85 1011 10 16 N/A
7:51 pm 19:51 Mostly Cloudy 76 24.4 49 9.4 39 39 ESE 3 6 29.85 1011 10 16 N/A
8:51 pm 20:51 Partly Cloudy 76 24.4 49 9.4 39 39 E 10 17 29.88 1012 10 16 N/A
9:51 pm 21:51 Mostly Clear 74 23.3 52 11.1 46 46 SE 7 11 29.88 1012 10 16 N/A
10:51 pm 22:51 Mostly Cloudy 73 22.8 53 11.7 50 50 ESE 8 13 29.90 1012 10 16 N/A
11:51 pm 23:51 Cloudy 71 21.7 54 12.2 55 55 SSE 8 13 29.91 1013 10 16 N/A

Powered by AerisWeather